Shreveport, LA

3:51 AM CDT on October 24, 2017 (GMT -0500)
Shreveport Regional

Weather History for KSHV - January, 2014

Change the Weather History Date:

Tuesday, January 14, 2014

  Actual Average Record
Temperature  
Mean Temperature 51 °F 46 °F  
Max Temperature 69 °F 57 °F 80 °F (1971)
Min Temperature 32 °F 36 °F 5 °F (1982)
Degree Days  
Heating Degree Days 14 19  
Month to date heating degree days 294 266  
Since 1 July heating degree days 1264 1168  
Cooling Degree Days 0 0  
Month to date cooling degree days 0 0  
Year to date cooling degree days 0 0  
Moisture  
Dew Point 28 °F    
Average Humidity 48    
Maximum Humidity 78    
Minimum Humidity 17    
Precipitation  
Precipitation T in 0.12 in 5.71 in (1885)
Month to date precipitation 0.82 1.77  
Year to date precipitation 0.82 1.77  
Snow  
Snow 0.00 in - - ()
Month to date snowfall 0.0  
Since 1 July snowfall T  
Snow Depth 0.00 in    
Sea Level Pressure  
Sea Level Pressure 30.07 in    
Wind  
Wind Speed 8 mph (West)    
Max Wind Speed 24 mph    
Max Gust Speed 31 mph    
Visibility 10 miles    
Events Rain    
T = Trace of Precipitation, MM = Missing Value Source: NWS Daily Summary

Daily Weather History Graph

Daily Weather History Graph

Search for Another Location

Airport or City:

Trip Planner

Search our weather history database for the weather conditions in past years. The results will help you decide how hot, cold, wet, or windy it might be!

Date:

Astronomy

Jan. 14, 2014 Rise Set
Actual Time 7:17 AM CST 5:31 PM CST
Civil Twilight 6:50 AM CST 5:58 PM CST
Nautical Twilight 6:20 AM CST 6:28 PM CST
Astronomical Twilight 5:50 AM CST 6:58 PM CST
Moon 4:35 PM CST (1/14) 5:53 AM CST (1/14)
Length of Visible Light 11h 07m
Length of Day
10h 14m
Waxing Gibbous, 98% of the Moon is Illuminated
Jan 14
Waxing Gibbous
Jan 15
Full
Jan 23
Last Quarter
Jan 30
New
Feb 6
First Quarter

Hourly Weather History & Observations

Time (CST) Temp. Windchill Dew Point Humidity Pressure Visibility Wind Dir Wind Speed Gust Speed Precip Events Conditions
12:56 AM 39.0 °F - 28.9 °F 67% 30.05 in 10.0 mi Calm Calm - N/A   Clear
1:56 AM 39.0 °F 35.7 °F 28.9 °F 67% 30.04 in 10.0 mi WSW 4.6 mph - N/A   Clear
2:56 AM 36.0 °F 32.1 °F 28.9 °F 76% 30.04 in 10.0 mi WSW 4.6 mph - N/A   Clear
3:56 AM 37.0 °F 33.3 °F 28.9 °F 73% 30.04 in 10.0 mi WSW 4.6 mph - N/A   Clear
4:56 AM 36.0 °F - 28.9 °F 76% 30.03 in 10.0 mi Calm Calm - N/A   Clear
5:56 AM 33.1 °F 30.0 °F 27.0 °F 78% 30.04 in 10.0 mi West 3.5 mph - N/A   Clear
6:56 AM 32.0 °F - 27.0 °F 82% 30.04 in 10.0 mi Calm Calm - N/A   Clear
7:56 AM 37.0 °F - 28.0 °F 70% 30.05 in 10.0 mi Calm Calm - N/A   Clear
8:56 AM 44.1 °F 40.8 °F 30.9 °F 60% 30.07 in 10.0 mi WSW 5.8 mph - N/A   Clear
9:56 AM 54.0 °F - 28.0 °F 37% 30.09 in 10.0 mi SW 8.1 mph - N/A   Clear
10:56 AM 62.1 °F - 23.0 °F 22% 30.07 in 10.0 mi WSW 17.3 mph - N/A   Clear
11:56 AM 66.0 °F - 23.0 °F 20% 30.04 in 10.0 mi WSW 11.5 mph - N/A   Clear
12:56 PM 66.9 °F - 23.0 °F 19% 30.01 in 10.0 mi WSW 11.5 mph 19.6 mph N/A   Clear
1:56 PM 68.0 °F - 21.9 °F 17% 30.00 in 10.0 mi WSW 13.8 mph - N/A   Clear
2:56 PM 69.1 °F - 24.1 °F 18% 30.00 in 10.0 mi West 9.2 mph - N/A   Clear
3:56 PM 68.0 °F - 21.0 °F 17% 30.00 in 10.0 mi West 9.2 mph - N/A   Partly Cloudy
4:56 PM 64.9 °F - 21.0 °F 19% 30.02 in 10.0 mi West 8.1 mph - N/A   Partly Cloudy
5:56 PM 60.1 °F - 28.0 °F 30% 30.06 in 10.0 mi North 16.1 mph 27.6 mph N/A   Partly Cloudy
6:56 PM 57.9 °F - 30.0 °F 35% 30.10 in 10.0 mi NNW 6.9 mph - N/A   Mostly Cloudy
7:56 PM 57.0 °F - 30.9 °F 37% 30.13 in 10.0 mi NNW 9.2 mph - N/A   Mostly Cloudy
8:56 PM 55.9 °F - 35.1 °F 45% 30.16 in 10.0 mi NNW 16.1 mph - N/A   Mostly Cloudy
9:56 PM 53.1 °F - 37.0 °F 55% 30.20 in 10.0 mi North 18.4 mph 25.3 mph 0.00 in Rain Light Rain
10:56 PM 52.0 °F - 32.0 °F 47% 30.20 in 10.0 mi North 11.5 mph - 0.00 in   Mostly Cloudy
11:56 PM 48.9 °F - 32.0 °F 52% 30.22 in 10.0 mi NW 10.4 mph - N/A   Partly Cloudy